Regional Weather Roundup
Issued by NWS

Home | Current Version | Previous Version | Graphics & Text | Print | Product List | Glossary On
Versions: 1 2 3 4 5 6 7 8 9 10 11 12 13 14 15 16 17 18 19 20 21 22 23 24 25 26 27
000
ASUS45 KSLC 280610
RWRUT

UTAH REGIONAL WEATHER ROUNDUP
NATIONAL WEATHER SERVICE SALT LAKE CITY UT
1200 AM MDT SUN AUG 28 2016

UTZ001>011-023>025-280700-

NORTHERN UTAH

CITY           SKY/WX    TMP DP  RH WIND       PRES   REMARKS
BRIGHAM CITY     N/A     63  36  36 CALM      30.05R
HILL AFB       CLEAR     67  27  22 E16       30.07R
LOGAN          PTCLDY    54  39  57 NE5       30.05R
OGDEN          PTCLDY    66  28  24 S9        30.04R
PROVO AIRPORT  CLEAR     64  37  36 SE8       30.09R
SALT LAKE CITY CLEAR     72  30  21 E9        30.03R
VERNAL         CLEAR     59  45  59 CALM      30.16R
WENDOVER       CLEAR     70  30  23 CALM      30.02S
HEBER CITY     CLEAR     50  37  62 CALM      30.15R
WEST JORDAN    CLEAR     64  33  31 SE9       30.07R

$$

UTZ012>022-026-027-280700-

SOUTHERN/CENTRAL UTAH

CITY           SKY/WX    TMP DP  RH WIND       PRES   REMARKS
BLANDING       PTCLDY    58  47  66 N7        30.31S
BRYCE CANYON   MOCLDY    50  46  86 NW5       30.33R
CEDAR CITY     PTCLDY    56  48  74 S7        30.20R
MILFORD        CLEAR     59  50  72 S12       30.15R
MOAB/CYNLANDS  MOCLDY    70  47  43 CALM      30.13S
PRICE          PTCLDY    61  38  42 NE7       30.21R
ST GEORGE      CLEAR     70  57  64 CALM      30.10S

$$

REGIONAL REPORTS     COLORADO/ARIZONA

CITY           SKY/WX    TMP DP  RH WIND       PRES   REMARKS
CRAIG, CO      CLOUDY    54  39  57 CALM      30.22R
GRAND JUNCTION PTCLDY    67  48  50 E12       30.15S
RIFLE          CLOUDY    59  50  72 SE3       30.20R
MONTROSE       CLOUDY    60  48  64 CALM      30.24F
CORTEZ         CLOUDY    57  49  74 NE5       30.24F
PAGE, AZ       MOCLDY    67  53  61 W3        30.14S
GRAND CANYON   LGT RAIN  53  50  89 W3        30.27R
KINGMAN        MOCLDY    65  57  75 CALM      30.08S
FLAGSTAFF      MOCLDY    50  48  93 CALM      30.29S

$$

REGIONAL REPORTS    NEVADA/IDAHO/WYOMING

CITY           SKY/WX    TMP DP  RH WIND       PRES   REMARKS
LAS VEGAS, NV  MOCLDY    82  46  28 NE8       29.97R
ELY            CLEAR     62  38  40 S14       30.20R
ELKO           CLEAR     58  22  24 CALM      30.08S
POCATELLO, ID  CLEAR     71  28  20 S12       30.01R
BURLEY         CLEAR     58  41  53 S7        29.99R
EVANSTON, WY   CLEAR     54  24  31 E7        30.24R
ROCK SPRINGS   CLEAR     58  20  22 S8        30.21R

$$




USA.gov is the U.S. government's official web portal to all federal, state and local government web resources and services.